(347006) = 2010 DX21

Discovered at Socorro on 2010-02-17 by LINEAR.

Orbit

Orbit type: Main Belt

Note: WebGL enabled browser required.

epoch2023-09-13.0
epoch JD2460200.5
perihelion date2022-12-12.54706
perihelion JD2459926.04706
argument of perihelion (°)127.72422
ascending node (°)303.80383
inclination (°)5.44020
eccentricity0.1268694
perihelion distance (AU)1.9482204
Tisserand w.r.t. Jupiter3.6
ΔV w.r.t. Earth (km/sec)8.8
semimajor axis (AU)2.2313047
mean anomaly (°)81.15839
mean daily motion (°/day)0.29570970
aphelion distance (AU)2.514
period (years)3.33
P-vector [x]0.31387991
P-vector [y]0.83856495
P-vector [z]0.44529566
Q-vector [x]-0.94618878
Q-vector [y]0.31517662
Q-vector [z]0.07341993
absolute magnitude17.36
phase slope0.15
uncertainty0
referenceMPO 779482
observations used428
oppositions13
arc length (days)8393
first opposition used2000
last opposition used2023
residual rms (arc-secs)0.77
perturbers coarse indicatorM-v
perturbers precise indicator003Ek
first observation date used2000-02-01.0
last observation date used2023-01-24.0
computer nameMPCLINUX
JD of orbit computation2456819.608254
perihelion JD uncertainty (days)1.2636E-04
argument of perihelion uncertainty (°)1.0385E-04
ascending node uncertainty (°)9.5275E-05
inclination uncertainty (°)8.7179E-06
eccentricity uncertainty 1.0313E-07
perihelion distance uncertainty (AU)2.3522E-07
Minimum Orbit Intersection Distances (in AU)
for orbit epoch: 2460200.5, reference: E2023-TP1
Mercury1.64051
Venus1.23093
Earth0.96735
Mars0.37985
Jupiter2.71829
Saturn7.08255
Uranus16.1782
Neptune27.7687

Observations

444 total observations over interval: 2000 02 01.29839 – 2023 01 24.533189
These data are available for download (format description).

Date (UT) J2000 RA J2000 Dec Magn Location Ref
2000 02 01.29839 09 17 53.40 +13 42 16.5 19.1 R 703 – Catalina Sky Survey MPS 407772
2000 02 01.31014 09 17 52.39 +13 42 19.6 19.1 R 703 – Catalina Sky Survey MPS 407772
2000 02 01.32189 09 17 51.56 +13 42 18.2 18.6 R 703 – Catalina Sky Survey MPS 407772
2000 02 01.33362 09 17 50.82 +13 42 20.5 18.9 R 703 – Catalina Sky Survey MPS 407772
2000 02 04.31217 09 14 24.65 +13 46 47.8 19.1   704 – Lincoln Laboratory ETS, New Mexico MPS 327524
2000 02 04.34094 09 14 22.57 +13 46 51.4 19.1   704 – Lincoln Laboratory ETS, New Mexico MPS 327524
2000 02 04.35528 09 14 21.60 +13 46 53.8 19.4   704 – Lincoln Laboratory ETS, New Mexico MPS 327524
2002 11 15.25264 04 24 32.90 +31 21 16.1 18.8   704 – Lincoln Laboratory ETS, New Mexico MPS 407772
2002 11 15.26992 04 24 31.87 +31 21 13.9 19.5   704 – Lincoln Laboratory ETS, New Mexico MPS 407772
2002 11 15.30410 04 24 29.75 +31 21 09.5 20.1   704 – Lincoln Laboratory ETS, New Mexico MPS 407772
2002 11 15.32108 04 24 28.49 +31 21 07.9 19.6   704 – Lincoln Laboratory ETS, New Mexico MPS 407772
2003 01 05.15515 03 44 42.66 +26 28 43.5 19.7 C 704 – Lincoln Laboratory ETS, New Mexico MPS 327524
2003 01 05.17043 03 44 42.77 +26 28 37.5 20.9 C 704 – Lincoln Laboratory ETS, New Mexico MPS 327524
2003 01 05.18566 03 44 42.67 +26 28 33.4 19.9 C 704 – Lincoln Laboratory ETS, New Mexico MPS 327524
2003 01 05.20105 03 44 42.73 +26 28 28.3 19.3 C 704 – Lincoln Laboratory ETS, New Mexico MPS 327524
2003 01 05.21642 03 44 42.60 +26 28 23.9 19.5 C 704 – Lincoln Laboratory ETS, New Mexico MPS 327524
2005 10 01.24203 23 24 47.59 +05 29 25.9 19.5 V 703 – Catalina Sky Survey MPS 327524
2005 10 01.25054 23 24 47.12 +05 29 24.2 19.5 V 703 – Catalina Sky Survey MPS 327524
2005 10 01.25906 23 24 46.62 +05 29 22.4 19.6 V 703 – Catalina Sky Survey MPS 327524
2005 10 01.26765 23 24 46.15 +05 29 20.7 19.4 V 703 – Catalina Sky Survey MPS 327524
2007 03 16.31710 12 31 49.22 -12 20 09.0 20.3 V 691 – Steward Observatory, Kitt Peak-Spacewatch MPS 327524
2007 03 16.33827 12 31 47.92 -12 20 04.5 20.4 V 691 – Steward Observatory, Kitt Peak-Spacewatch MPS 327524
2007 03 16.35597 12 31 46.83 -12 20 00.9 20.3 V 691 – Steward Observatory, Kitt Peak-Spacewatch MPS 327524
2008 08 02.00961 20 32 21.66 -18 12 57.9 19.6 V J75 – OAM Observatory, La Sagra MPS 327524
2008 08 02.02351 20 32 20.63 -18 12 59.9 19.3 V J75 – OAM Observatory, La Sagra MPS 327524
2008 08 02.03736 20 32 19.74 -18 13 02.1 19.3 V J75 – OAM Observatory, La Sagra MPS 327524
2008 09 06.13552 20 03 35.67 -18 27 41.2 20.5 V G96 – Mt. Lemmon Survey MPS 327524
2008 09 06.13980 20 03 35.60 -18 27 41.7 20.6 V G96 – Mt. Lemmon Survey MPS 327524
2008 09 06.14403 20 03 35.49 -18 27 41.1 20.8 V G96 – Mt. Lemmon Survey MPS 327524
2008 09 06.14831 20 03 35.35 -18 27 41.1 21.1 V G96 – Mt. Lemmon Survey MPS 327524
2009 09 28.46625 08 01 30.86 +23 26 50.9 22.1 V G96 – Mt. Lemmon Survey MPS 327524
2009 09 28.47321 08 01 31.72 +23 26 48.7 21.9 V G96 – Mt. Lemmon Survey MPS 327524
2009 09 28.48016 08 01 32.52 +23 26 45.7 21.8 V G96 – Mt. Lemmon Survey MPS 327524
2009 09 28.48719 08 01 33.34 +23 26 43.8 21.2 V G96 – Mt. Lemmon Survey MPS 327524
2009 11 21.47299 09 26 48.58 +16 52 01.5 20.7 V G96 – Mt. Lemmon Survey MPS 323548
2009 11 21.48072 09 26 49.02 +16 51 58.3 20.7 V G96 – Mt. Lemmon Survey MPS 323548
2009 11 21.48854 09 26 49.48 +16 51 55.1 20.5 V G96 – Mt. Lemmon Survey MPS 323548
2009 11 21.49633 09 26 49.95 +16 51 52.2 20.4 V G96 – Mt. Lemmon Survey MPS 323548
2009 12 19.40038 09 43 42.63 +14 20 14.9 20.1 V G96 – Mt. Lemmon Survey MPS 322341
2009 12 19.40679 09 43 42.67 +14 20 13.5 20.2 V G96 – Mt. Lemmon Survey MPS 322341
2009 12 19.41330 09 43 42.70 +14 20 12.3 20.1 V G96 – Mt. Lemmon Survey MPS 322341
2009 12 19.41983 09 43 42.70 +14 20 10.8 19.9 V G96 – Mt. Lemmon Survey MPS 322341
2010 01 18.27980 09 31 12.72 +13 33 52.2 19.5   704 – Lincoln Laboratory ETS, New Mexico MPS 322341
2010 01 18.29232 09 31 11.97 +13 33 53.2 19.8   704 – Lincoln Laboratory ETS, New Mexico MPS 322341
2010 01 18.30483 09 31 11.10 +13 33 52.9 20.1   704 – Lincoln Laboratory ETS, New Mexico MPS 322341
2010 01 18.31736 09 31 10.53 +13 33 53.4 19.7   704 – Lincoln Laboratory ETS, New Mexico MPS 322341
2010 01 18.32991 09 31 09.72 +13 33 54.0 20.1   704 – Lincoln Laboratory ETS, New Mexico MPS 322341
2010 01 25.76650 09 23 37.82 +13 40 02.4 19.6 R 300 – Bisei Spaceguard Center-BATTeRS MPS 322341
2010 01 25.77205 09 23 37.45 +13 40 03.1 19.6 R 300 – Bisei Spaceguard Center-BATTeRS MPS 322341
2010 01 25.77701 09 23 37.10 +13 40 03.0 19.5 R 300 – Bisei Spaceguard Center-BATTeRS MPS 322341
2010 01 25.78196 09 23 36.78 +13 40 03.1 19.4 R 300 – Bisei Spaceguard Center-BATTeRS MPS 322341
2010 02 13.27487 09 02 45.01 +14 06 26.3 18.9   704 – Lincoln Laboratory ETS, New Mexico MPS 322341
2010 02 13.28712 09 02 44.19 +14 06 26.9 19.7   704 – Lincoln Laboratory ETS, New Mexico MPS 322341
2010 02 13.29934 09 02 43.36 +14 06 28.0 19.4   704 – Lincoln Laboratory ETS, New Mexico MPS 322341
2010 02 13.31156 09 02 42.55 +14 06 29.5 19.5   704 – Lincoln Laboratory ETS, New Mexico MPS 322341
2010 02 13.31887 09 02 42.07 +14 06 29.7 19.2 V G96 – Mt. Lemmon Survey MPS 316835
2010 02 13.32377 09 02 41.74 +14 06 30.3 19.4   704 – Lincoln Laboratory ETS, New Mexico MPS 322341
2010 02 13.32478 09 02 41.67 +14 06 30.3 19.3 V G96 – Mt. Lemmon Survey MPS 316835
2010 02 13.33080 09 02 41.28 +14 06 30.7 19.1 V G96 – Mt. Lemmon Survey MPS 316835
2010 02 13.33678 09 02 40.88 +14 06 31.2 19.3 V G96 – Mt. Lemmon Survey MPS 316835
2010 02 17.21909 08 58 39.93 +14 11 45.8 19.1   704 – Lincoln Laboratory ETS, New Mexico MPS 313954
2010 02 17.23132 08 58 39.22 +14 11 46.1 19.9   704 – Lincoln Laboratory ETS, New Mexico MPS 313954
2010 02 17.24362 08 58 38.46 +14 11 47.0 20.8   704 – Lincoln Laboratory ETS, New Mexico MPS 313954
2010 02 17.26796 08 58 36.87 +14 11 47.8 19.8   704 – Lincoln Laboratory ETS, New Mexico MPS 313954
2010 02 19.22209 08 56 43.11 +14 14 10.1 19.4   704 – Lincoln Laboratory ETS, New Mexico MPS 313954
2010 02 19.24635 08 56 41.61 +14 14 12.2 19.9   704 – Lincoln Laboratory ETS, New Mexico MPS 313954
2010 02 19.25845 08 56 40.89 +14 14 12.0 19.9   704 – Lincoln Laboratory ETS, New Mexico MPS 313954
2010 02 19.27057 08 56 40.18 +14 14 13.5 20.0   704 – Lincoln Laboratory ETS, New Mexico MPS 313954
2010 02 23.34059 08 53 02.41 +14 18 23.2 19.4 R H36 – Sandlot Observatory, Scranton MPS 316835
2010 02 23.34789 08 53 02.03 +14 18 22.8 19.5 R H36 – Sandlot Observatory, Scranton MPS 316835
2010 02 23.35522 08 53 01.64 +14 18 22.3 19.3 R H36 – Sandlot Observatory, Scranton MPS 316835
2010 05 01.780653 09 09 39.562 +12 05 35.74   C51 – WISE MPS 927081
2010 05 02.045389 09 09 56.856 +12 04 20.35   C51 – WISE MPS 927081
2010 05 02.640693 09 10 36.317 +12 01 22.26   C51 – WISE MPS 927081
2010 05 02.772998 09 10 45.187 +12 00 42.48   C51 – WISE MPS 927081
2010 05 02.905303 09 10 54.082 +12 00 01.37   C51 – WISE MPS 927081
2012 10 28.401305 04 36 49.019 +31 28 37.93 19.6 z F51 – Pan-STARRS 1, Haleakala MPS 439608
2012 10 28.412581 04 36 48.736 +31 28 39.13 19.6 z F51 – Pan-STARRS 1, Haleakala MPS 439608
2012 11 05.42507 04 32 22.63 +31 32 45.3 19.5 V 703 – Catalina Sky Survey MPS 439608
2012 11 05.43159 04 32 22.30 +31 32 45.4 18.8 V 703 – Catalina Sky Survey MPS 439608
2012 11 05.43811 04 32 22.02 +31 32 44.3 18.9 V 703 – Catalina Sky Survey MPS 439608
2012 11 05.44463 04 32 21.66 +31 32 43.8 18.8 V 703 – Catalina Sky Survey MPS 439608
2012 11 06.496302 04 31 35.888 +31 32 23.65 19.5 i F51 – Pan-STARRS 1, Haleakala MPS 439608
2012 11 06.510128 04 31 35.212 +31 32 23.20 19.4 i F51 – Pan-STARRS 1, Haleakala MPS 439608
2012 11 12.43068 04 26 32.39 +31 25 41.8 20.0 R 926 – Tenagra II Observatory, Nogales MPS 441814
2012 11 12.44982 04 26 31.22 +31 25 39.3 19.9 R 926 – Tenagra II Observatory, Nogales MPS 441814
2012 11 12.46653 04 26 30.23 +31 25 37.3 20.5 R 926 – Tenagra II Observatory, Nogales MPS 441814
2012 11 20.32897 04 18 20.98 +31 04 20.4 18.3 V 703 – Catalina Sky Survey MPS 443467
2012 11 20.34183 04 18 20.05 +31 04 17.7 19.4 V 703 – Catalina Sky Survey MPS 443467
2012 11 20.34829 04 18 19.58 +31 04 15.9 18.6 V 703 – Catalina Sky Survey MPS 443467
